Powrót do katalogu

THORAD AGENA D DEB

AktywnyPO
NORAD 4997·DEBRIS·🇺🇸 United States

Wystrzelony Apr 8, 1970 z Vandenberg Space Force Base

Loading…

Następne Przeloty

TLE

Source: Space-Track
1 04997U 70025HT  26228.21567856  .00000131  00000-0  12095-3 0  9998
2 04997  99.9312 139.4362 0043275   1.9198 358.2122 14.00910519842929

Śledź THORAD AGENA D DEB w czasie rzeczywistym z AllMySat

Download on the App Store